Погода в Хаэне

Испания     37°47′10″N   3°46′59″W
темп.,
°C
ветер,
м/с
пор.,
м/с
влажн.,
%
обл.,
%
осадки,
мм/ч
давл.,
гПа
погр.,
м
21 июня, пн
пн2123:00+17зюз33720 0.0 1015130
02:00+15зюз228421 0.0 101457
05:00+16зюз1278100 0.0 1013343
08:00+16з22740 0.2 1014251
11:00+19з45500 0.1 10141399
14:00+22з56330 0.1 10131550
17:00+23з56270 0.0 10121813
20:00+23зюз45260 0.0 10121682
22 июня, вт
вт2223:00+19зюз33380 0.0 101431
02:00+16з22610 0.0 101519
05:00+14зсз11723 0.0 101411
08:00+14зсз01700 0.0 101554
11:00+19ссз22535 0.0 1015998
14:00+23сз44387 0.0 10142097
17:00+25зсз44294 0.0 10132491
20:00+24з342821 0.0 10132558
23 июня, ср
ср2323:00+18зсз335244 0.0 101746
02:00+16юз22603 0.1 101613
05:00+14зюз11681 0.0 101611
08:00+16юв11620 0.0 101637
11:00+21ссз22440 0.0 10161027
14:00+25сз44310 0.0 10152241
17:00+27зсз44250 0.0 10142515
20:00+26з22240 0.0 10142000
24 июня, чт
чт2423:00+22ю22312 0.0 101612
02:00+20з22365 0.0 101611
05:00+17в11471 0.0 101611
08:00+19вюв114419 0.0 101713
11:00+25св12345 0.0 10161097
14:00+29с23264 0.0 10152371
17:00+31ссз44210 0.0 10142787
20:00+30ссз42210 0.0 10131789
25 июня, пт
пт2523:00+24ю22310 0.0 101511
02:00+21всв11480 0.0 101611
05:00+19всв12580 0.0 101612
08:00+20вюв12605 0.0 101858
11:00+26ссв12345 0.0 1017876
14:00+31с33245 0.0 10151957
17:00+33ссз44220 0.0 10132584
20:00+32сз43250 0.0 10122026